Location: Antin
(43.3330°N, 0.2804°E)
Time: 03:41:48
(UTC+00:00)

Meteor 1-21 Rocket - Pass Details

Date: 16 October 2021
Orbit: 834 x 906 km, 81.2° (Epoch: 02 December)

Event Time Altitude Azimuth Distance (km) Brightness Sun altitude
Rises 18:16:13 0° 352° (N) 3,491 7.5 -12.1°
Reaches altitude 10° 18:18:41 10° 355° (N) 2,558 6.8 -12.5°
Maximum altitude 18:24:30 69° 78° (ENE) 961 4.3 -13.6°
Drops below altitude 10° 18:30:22 10° 162° (SSE) 2,575 6.5 -14.6°
Sets 18:32:51 0° 164° (SSE) 3,516 7.2 -15.1°
